Location: Bilsen
(53.7722°N, 9.8765°E)
Time: 10:38:41
(UTC+00:00)

H-2A R/B - Pass Details

Date: 18 February 2020
Orbit: 530 x 652 km, 98.3° (Epoch: 29 March)

Event Time Altitude Azimuth Distance (km) Brightness Sun altitude
Rises 03:46:31 0° 19° (NNE) 2,889 6.5 -25.3°
Reaches altitude 10° 03:48:46 10° 26° (NNE) 1,998 5.6 -25.0°
Maximum altitude 03:52:58 47° 100° (E) 850 3.6 -24.4°
Enters shadow 03:57:06 11° 174° (S) 1,975 5.1 -23.8°
